TimeMST,TemperatureF,Dew PointF,Humidity,Sea Level PressureIn,VisibilityMPH,Wind Direction,Wind SpeedMPH,Gust SpeedMPH,PrecipitationIn,Events,Conditions,WindDirDegrees,DateUTC
12:55 AM,30.9,28.9,92,29.64,10.0,North,4.6,-,N/A,,Partly Cloudy,360,2013-01-27 07:55:00
1:55 AM,33.1,30.0,89,29.63,10.0,West,5.8,-,N/A,,Clear,270,2013-01-27 08:55:00
2:55 AM,30.0,28.0,92,29.64,10.0,WNW,4.6,-,N/A,,Clear,300,2013-01-27 09:55:00
3:55 AM,30.0,28.0,92,29.65,10.0,NW,9.2,-,N/A,,Clear,310,2013-01-27 10:55:00
4:55 AM,32.0,30.9,96,29.65,10.0,West,8.1,-,N/A,,Clear,270,2013-01-27 11:55:00
5:55 AM,30.9,30.9,100,29.68,10.0,Calm,Calm,-,N/A,,Clear,0,2013-01-27 12:55:00
6:55 AM,30.0,28.9,96,29.72,10.0,WNW,4.6,-,N/A,,Clear,300,2013-01-27 13:55:00
7:55 AM,32.0,32.0,100,29.74,10.0,NW,6.9,-,N/A,,Clear,320,2013-01-27 14:55:00
8:55 AM,39.0,37.0,93,29.73,10.0,NW,9.2,-,N/A,,Partly Cloudy,320,2013-01-27 15:55:00
9:55 AM,45.0,37.9,76,29.73,10.0,NNW,4.6,-,N/A,,Clear,340,2013-01-27 16:55:00
10:55 AM,51.1,37.0,59,29.73,10.0,NW,9.2,-,N/A,,Clear,320,2013-01-27 17:55:00
11:55 AM,53.1,34.0,48,29.71,10.0,North,11.5,-,N/A,,Clear,350,2013-01-27 18:55:00
12:55 PM,54.0,34.0,47,29.68,10.0,North,8.1,-,N/A,,Clear,360,2013-01-27 19:55:00
1:55 PM,55.9,30.9,39,29.67,10.0,NNW,4.6,-,N/A,,Clear,330,2013-01-27 20:55:00
2:55 PM,55.0,30.0,38,29.68,10.0,Calm,Calm,-,N/A,,Clear,0,2013-01-27 21:55:00
3:55 PM,55.0,30.9,40,29.68,10.0,ESE,5.8,-,N/A,,Clear,120,2013-01-27 22:55:00
4:55 PM,48.9,30.9,50,29.70,10.0,ESE,8.1,-,N/A,,Clear,110,2013-01-27 23:55:00
5:55 PM,39.0,30.0,70,29.76,10.0,ESE,8.1,-,N/A,,Clear,110,2013-01-28 00:55:00
6:55 PM,35.1,28.0,76,29.79,10.0,SE,6.9,-,N/A,,Clear,140,2013-01-28 01:55:00
7:55 PM,32.0,28.0,85,29.81,10.0,South,3.5,-,N/A,,Clear,180,2013-01-28 02:55:00
8:55 PM,25.0,21.9,88,29.81,10.0,Calm,Calm,-,N/A,,Clear,0,2013-01-28 03:55:00
9:55 PM,30.0,27.0,88,29.76,10.0,SSE,5.8,-,N/A,,Clear,150,2013-01-28 04:55:00
10:55 PM,24.1,23.0,96,29.75,10.0,Calm,Calm,-,N/A,,Clear,0,2013-01-28 05:55:00
11:55 PM,23.0,23.0,100,29.74,10.0,Calm,Calm,-,N/A,,Clear,0,2013-01-28 06:55:00